Cloud_Cover
33 32 91 100 100 80 31 25 22 18 1 0 0 0 0 0 2 0 0 0 0 0 0 4 3 0 1 48 26 98 100 92 31 20 4 86 18 0 32 21 43 3 7 92 99
33 33 73 100 100 47 28 28 8 8 0 0 0 0 0 2 0 0 0 0 0 0 0 2 11 6 41 77 70 42 80 69 34 1 2 96 63 0 10 26 1 60 88 5 0
26 31 51 83 86 48 33 31 15 0 0 0 0 0 0 18 0 0 0 0 0 0 0 2 0 13 94 73 50 85 100 6 14 3 5 5 21 96 17 100 64 98 2 0 0
24 27 26 31 73 97 71 32 29 0 0 0 0 0 0 0 0 0 0 0 0 0 2 3 1 28 93 55 33 31 45 10 2 14 9 0 24 7 8 87 40 4 5 2 17
27 27 24 30 83 100 84 62 21 5 0 0 0 0 0 0 0 0 0 0 0 0 2 0 15 100 85 72 85 89 59 2 2 79 14 1 61 46 59 34 0 0 8 15 14
24 25 29 27 19 19 14 3 25 3 0 0 0 19 0 0 0 0 0 0 0 0 0 2 44 66 99 16 29 84 100 10 100 95 96 9 96 84 96 22 1 6 0 10 34
18 26 22 21 24 5 7 0 0 0 0 0 0 0 0 0 0 0 0 0 0 0 0 47 0 3 98 100 22 44 94 57 100 54 100 36 61 100 100 28 0 0 0 6 21
65 47 25 25 20 5 0 0 0 0 0 0 0 0 0 0 0 0 0 0 0 0 0 0 0 0 16 2 62 100 66 100 100 72 41 76 100 100 88 55 0 0 8 14 1
10 18 17 12 0 0 0 0 0 0 0 0 0 0 0 0 0 0 0 0 0 0 0 0 0 0 54 51 74 88 43 68 100 100 73 84 100 100 99 0 0 4 12 9 18
7 5 0 0 0 0 0 0 0 0 16 0 0 0 0 0 0 0 0 0 0 0 0 0 0 0 98 100 63 100 100 98 90 100 0 39 100 100 29 0 0 0 0 9 30
0 0 0 0 0 0 1 0 0 0 0 0 0 0 0 0 0 0 0 0 0 0 0 0 0 11 18 47 90 100 99 44 66 99 36 100 97 70 0 0 0 0 0 0 32
0 0 0 0 0 1 9 0 0 0 0 0 0 0 0 0 0 0 0 0 0 0 0 4 0 95 86 42 90 41 88 96 78 7 16 9 52 100 87 0 0 0 0 0 23
0 0 0 0 1 18 0 0 0 0 0 0 0 0 0 0 0 0 0 0 0 0 2 5 14 100 22 75 85 74 98 66 0 20 5 5 3 5 8 98 1 0 0 0 0
0 0 0 14 5 0 0 0 0 0 0 0 0 0 0 0 0 0 0 0 0 4 0 84 100 69 5 34 99 61 38 11 100 100 83 39 63 62 91 91 89 83 6 0 0
0 0 0 63 0 0 0 0 0 0 0 0 0 0 0 0 0 0 0 0 0 3 5 3 100 34 5 55 31 2 100 74 100 92 100 47 32 81 31 100 100 100 100 17 0
1 6 69 0 0 0 0 0 0 0 0 0 0 0 0 0 0 0 0 0 0 0 5 4 86 60 3 25 44 82 11 26 32 42 10 19 92 10 51 100 100 100 100 1 0
0 30 87 0 0 0 0 0 0 0 0 0 0 0 0 0 0 0 0 0 0 0 0 0 59 55 57 92 11 100 94 64 33 98 78 58 71 94 5 19 100 100 94 7 1
0 43 1 0 0 0 0 0 0 0 0 0 0 0 0 0 0 0 0 0 0 0 0 0 0 15 6 1 85 36 96 98 100 69 94 100 61 100 100 5 0 0 0 0 5
17 0 0 0 3 5 5 5 1 1 0 2 0 0 0 0 0 0 0 0 0 0 0 5 5 8 10 15 22 98 0 96 96 100 77 99 100 100 99 12 6 5 2 0 0
0 0 0 0 4 93 7 89 4 3 0 1 0 0 0 0 0 0 0 0 0 0 0 0 25 26 8 56 14 6 93 85 66 78 78 72 100 97 8 100 100 100 46 0 0
0 0 0 0 0 66 68 86 66 13 2 0 0 0 0 0 0 0 0 0 0 0 0 0 0 82 82 4 85 27 22 57 71 100 100 12 85 100 100 100 100 100 100 0 0
0 31 0 0 0 18 82 6 52 78 4 0 0 0 0 0 0 0 0 0 0 0 0 0 0 24 100 79 4 90 48 1 91 33 31 97 95 5 28 100 100 100 79 5 5
0 12 0 0 0 0 5 5 46 38 5 2 0 0 0 0 0 0 0 0 0 0 0 0 0 3 84 90 39 0 0 48 32 0 1 76 100 14 100 100 100 92 20 0 0
0 48 0 0 0 1 5 4 5 5 5 5 0 0 0 0 0 1 0 0 0 0 0 0 0 0 92 92 72 20 29 24 5 100 88 24 31 97 100 100 100 100 100 1 0
0 53 99 15 0 0 0 98 53 4 1 2 0 0 0 0 3 5 6 4 0 0 0 0 0 2 100 88 50 97 66 4 0 0 81 92 49 94 86 100 100 100 100 20 0
3 100 100 100 100 4 0 0 52 18 5 4 0 0 0 0 5 12 13 5 5 0 0 0 0 2 15 91 100 99 4 5 36 2 8 4 0 5 91 100 100 100 74 0 0
0 87 100 100 34 71 5 5 5 5 5 5 5 0 0 5 11 79 34 4 30 1 0 0 0 0 6 95 85 30 45 33 61 100 88 87 42 0 0 20 44 0 0 0 0